Flag for USA

Past Weather in Jackson, Wyoming, USA — Yesterday and Last 2 Weeks

Now
43 °F

Overcast.


Feels Like: 43 °F
Forecast: 63 / 36 °F
Wind: No wind

Location: Jackson Hole
Current Time: Sep 20, 2020 at 9:24:55 am
Latest Report: Sep 20, 2020 at 8:56 am
Visibility: 10 mi
Pressure30.24 "Hg(23.96 "Hg at 1901m altitude)
Humidity: 86%
Dew Point: 39 °F
Location of JacksonLocation

Past Weather in Jackson — Graph

°F

Jackson Temperature Yesterday

Maximum temperature yesterday: 55 °F (at 3:56 pm)
Minimum temperature yesterday: 39 °F (at 11:56 pm)
Average temperature yesterday: 49 °F

High & Low Weather Summary for the Past Weeks

 TemperatureHumidityPressure
High90 °F (Sep 5, 4:30 pm)97% (Sep 20, 1:56 am)30.45 "Hg (Sep 20, 1:56 am)
Low24 °F (Sep 9, 6:56 am)9% (Sep 6, 4:15 pm)29.69 "Hg (Sep 7, 3:56 pm)
Average52 °F50%30.19 "Hg
* Reported Sep 5 6:56 am — Sep 20 6:56 am, Jackson. Weather by CustomWeather, © 2020

Note: Actual official high and low records may vary slightly from our data, if they occured in-between our weather recording intervals... More about our weather records

Jackson Weather History for the Previous 24 Hours

Scroll right to see more
 ConditionsComfort  
Time TempWeatherWind HumidityBarometerVisibility
6:56 am
Sun, Sep 20
38 °FPassing clouds.5 mph97%30.18 "Hg10 mi
5:56 am38 °FPassing clouds.3 mph97%30.16 "Hg10 mi
4:56 am40 °FPassing clouds.No wind93%30.14 "Hg10 mi
3:56 am41 °FOvercast.6 mph93%30.14 "Hg10 mi
2:56 am42 °FOvercast.6 mph92%30.14 "Hg10 mi
1:56 am40 °FMostly cloudy.No wind97%30.14 "Hg10 mi
12:56 am40 °FOvercast.No wind93%30.14 "Hg10 mi
11:56 pm
Sat, Sep 19
39 °FClear.6 mph93%30.17 "Hg10 mi
10:56 pm42 °FPassing clouds.8 mph89%30.15 "Hg10 mi
9:56 pm41 °FPassing clouds.8 mph93%30.14 "Hg10 mi
8:56 pm43 °FClear.6 mph89%30.12 "Hg10 mi
7:56 pm45 °FLight rain. Passing clouds.13 mph90%30.10 "Hg10 mi
7:13 pm45 °FThunderstorms. Mostly cloudy.13 mph81%30.17 "Hg5 mi
6:56 pm51 °FThunderstorms. Mostly cloudy.16 mph63%30.06 "Hg9 mi
5:56 pm54 °FPartly sunny.12 mph59%30.03 "Hg10 mi
4:56 pm55 °FMostly cloudy.13 mph57%30.03 "Hg10 mi
3:56 pm55 °FOvercast.12 mph57%30.03 "Hg10 mi
2:56 pm54 °FOvercast.15 mph57%30.03 "Hg10 mi
1:56 pm52 °FSunny.16 mph61%30.05 "Hg10 mi
12:56 pm51 °FSunny.14 mph69%30.06 "Hg10 mi
10:56 am46 °FLight rain. Mostly cloudy.9 mph86%30.07 "Hg10 mi
9:56 am50 °FLight rain. Mostly cloudy.10 mph61%30.03 "Hg10 mi
Weather by CustomWeather, © 2020

See weather overview